MET2387 - Kansas City to Rochester

Bombardier Dash-8-Q200
838AH
1 hr 15 mins
294 nm
Scheduled - Daily

Bid/PiRep Status

Bid was submitted on November 22nd, 2016 16:26 UTC.
PiRep # 74153: Approved by Dave Nichols on November 28th, 2016 10:07 UTC

Departure

Departing from
Kansas City (MCI)
Departure gate
Scheduled Departure
GMT 1900
Local 1400
METAR KMCI 182253Z 20015G21KT 10SM BKN250 02/M06 A3006 RMK AO2 SLP189 T00221056
TAF KMCI 181720Z 1818/1918 21012KT P6SM SCT250

Arrival

Arriving at
Rochester (RST)
Arrival gate
A4
Scheduled Arrival
GMT 2015
Local 1515
METAR KRST 182254Z 21012KT 10SM CLR M01/M05 A2981 RMK AO2 SLP115 T10061050
TAF KRST 181730Z 1818/1918 23011KT P6SM SCT250

Route Map

Planning Resources

ROYAL3 TONCE DSM J25 MCW YESUR [D147M] EGACE [D110M] D095M
ROYAL3 TONCE DSM J25 MCW RST
ROYAL 5 STJ DSM J25 MCW RST KRST
MCI STJ DSM J25 MCW RST
BACNN DSM JORDY MCW
Route:
OFP Layout:
Units:
Detailed Navlog:
ETOPS Planning:
Plan Stepclimbs:
Runway Analysis:
Include NOTAMS:
FIR NOTAMS:
Flight Maps:

Popularity

Hub Current Bids PiReps this month Total PiReps
KLAX 0 0 0
KBOS 0 0 0
KDFW 0 0 0